Weather History for EGVO - January, 2013

Change the Weather History Date:

Sunday, January 6, 2013

  Actual Average (EGUB) Record (EGUB)
Temperature  
Mean Temperature 44 °F -  
Max Temperature 46 °F 44 °F 57 °F (1999)
Min Temperature 41 °F 36 °F 10 °F (2009)
Degree Days  
Heating Degree Days 22    
Moisture  
Dew Point 43 °F    
Average Humidity 97    
Maximum Humidity 100    
Minimum Humidity 88    
Precipitation  
Precipitation 0.00 in - - ()
Sea Level Pressure  
Sea Level Pressure 30.47 in    
Wind  
Wind Speed 6 mph ()    
Max Wind Speed 12 mph    
Max Gust Speed -    
Visibility 3.1 miles    
Events Fog , Rain    
Averages and records for this station are not official NWS values.
T = Trace of Precipitation, MM = Missing Value Source: Averaged Metar Reports

Daily Weather History Graph

Daily Weather History Graph

Search for Another Location

Airport or City:

Trip Planner

Search our weather history database for the weather conditions in past years. The results will help you decide how hot, cold, wet, or windy it might be!

Date:

Astronomy

Jan. 06, 2013 Rise Set
Actual Time 8:06 AM GMT 4:12 PM GMT
Civil Twilight 7:27 AM GMT 4:51 PM GMT
Nautical Twilight 6:45 AM GMT 5:34 PM GMT
Astronomical Twilight 6:05 AM GMT 6:14 PM GMT
Moon 1:46 AM GMT (1/6) 11:45 AM GMT (1/6)
Length of Visible Light 9h 24m
Length of Day
8h 05m
Waning Crescent, 35% of the Moon is Illuminated
Jan 6
Waning Crescent
Jan 11
New
Jan 18
First Quarter
Jan 27
Full
Feb 3
Last Quarter

Hourly Weather History & Observations

Time (GMT) Temp. Windchill Dew Point Humidity Pressure Visibility Wind Dir Wind Speed Gust Speed Precip Events Conditions
12:50 AM 42.8 °F 39.3 °F 42.8 °F 100% 30.51 in - SW 5.8 mph - N/A   Clear
1:50 AM 41.0 °F 39.0 °F 39.2 °F 93% 30.48 in 4.3 mi SSW 3.5 mph - N/A   Mostly Cloudy
2:50 AM 44 °F - 43 °F 97% 30.54 in 2 mi WSW 8.1 mph - - Fog Light Fog
2:50 AM 42.8 °F 38.0 °F 42.8 °F 100% 30.51 in 2.5 mi WSW 8.1 mph - N/A   Overcast
3:50 AM 42.8 °F 38.6 °F 42.8 °F 100% 30.51 in 0.8 mi WSW 6.9 mph - N/A   Overcast
4:50 AM 41.0 °F 39.0 °F 41.0 °F 100% 30.51 in 0.1 mi West 3.5 mph - N/A Fog Fog
5:50 AM 41 °F - 41 °F 100% 30.53 in 0 mi SW 3.5 mph - - Fog Heavy Fog
5:50 AM 41.0 °F 39.0 °F 41.0 °F 100% 30.51 in 0.1 mi SW 3.5 mph - N/A Fog Fog
6:50 AM 41.0 °F 39.0 °F 41.0 °F 100% 30.51 in 0.1 mi WSW 3.5 mph - N/A Fog Fog
7:50 AM 41.0 °F 37.1 °F 41.0 °F 100% 30.51 in 0.2 mi South 5.8 mph - N/A Fog Fog
8:50 AM 42 °F - 42 °F 98% 30.53 in 0 mi South 6.9 mph - - Fog Partial Fog
8:50 AM 41.0 °F 36.4 °F 41.0 °F 100% 30.51 in 0.2 mi South 6.9 mph - N/A Fog Fog
9:50 AM 42.8 °F 38.6 °F 42.8 °F 100% 30.51 in 0.2 mi SSW 6.9 mph - N/A Fog Fog
10:50 AM 42.8 °F 41.1 °F 42.8 °F 100% 30.51 in 0.3 mi SW 3.5 mph - N/A Fog Fog
11:50 AM 43 °F - 43 °F 100% 30.52 in 1 mi WSW 3.5 mph - - Fog Light Fog
11:50 AM 42.8 °F 41.1 °F 42.8 °F 100% 30.48 in 1.2 mi WSW 3.5 mph - N/A   Mostly Cloudy
12:50 PM 44.6 °F - 44.6 °F 100% 30.48 in 2.5 mi WSW 2.3 mph - N/A   Mostly Cloudy
1:50 PM 44.6 °F 43.1 °F 44.6 °F 100% 30.45 in 4.3 mi ESE 3.5 mph - N/A   Mostly Cloudy
2:50 PM 46.4 °F 44.3 °F 44.6 °F 93% 30.45 in 3.7 mi SSE 4.6 mph - N/A   Mostly Cloudy
3:50 PM 46.4 °F 41.9 °F 44.6 °F 93% 30.42 in 6.2 mi SW 9.2 mph - N/A   Overcast
4:50 PM 46.4 °F 42.9 °F 44.6 °F 93% 30.42 in 6.2 mi SSW 6.9 mph - N/A   Overcast
5:50 PM 47 °F - 45 °F 88% 30.43 in 9 mi SW 10.4 mph - -   Overcast
5:50 PM 46.4 °F 41.5 °F 44.6 °F 93% 30.42 in 6.2 mi SW 10.4 mph - N/A   Overcast
6:50 PM 46.4 °F 41.9 °F 44.6 °F 93% 30.39 in 6.2 mi South 9.2 mph - N/A   Overcast
7:50 PM 46.4 °F 41.5 °F 44.6 °F 93% 30.39 in 6.2 mi SSW 10.4 mph - N/A   Overcast
8:50 PM 46 °F - 44 °F 89% 30.42 in 7 mi SSW 11.5 mph - -   Overcast
8:50 PM 46.4 °F 41.1 °F 44.6 °F 93% 30.39 in 6.2 mi SSW 11.5 mph - N/A   Overcast
9:50 PM 44.6 °F 39.2 °F 44.6 °F 100% 30.39 in 6.2 mi South 10.4 mph - N/A   Overcast
10:50 PM 44.6 °F 40.2 °F 42.8 °F 93% 30.39 in 4.3 mi SSW 8.1 mph - N/A   Overcast
11:50 PM 44 °F - 43 °F 95% 30.41 in 3 mi SSW 9.2 mph - - Rain Light Drizzle
11:50 PM 44.6 °F 39.7 °F 42.8 °F 93% 30.39 in 3.1 mi SSW 9.2 mph - N/A   Light Drizzle